DW9918 Weather Reports


Display with metric or nautical units.
time (UTC)temp
F
wind
direction
speed
MPH
gust
MPH
rain 1hr
in
rain 24hr
in
rain mn
in
humidity
%
barometer
mb
20260507074524 66 308 1.0 2.0 0.00 0.16 0.06 68 1013.6
20260507073013 65 257 1.0 4.0 0.00 0.16 0.06 70 1013.6
20260507071513 63 274 1.0 2.0 0.00 0.16 0.06 69 1013.6
20260507070014 63 232 1.0 3.0 0.00 0.16 0.06 74 1013.5
20260507064516 61 256 2.0 5.0 0.00 0.16 0.06 77 1013.4
20260507063009 60 276 4.0 6.0 0.00 0.17 0.06 76 1013.4
20260507061514 60 250 3.0 6.0 0.00 0.17 0.06 77 1013.3
20260507060019 59 232 2.0 5.0 0.00 0.17 0.06 77 1013.0
20260507054515 59 219 2.0 5.0 0.00 0.17 0.06 78 1013.1
20260507053019 57 213 1.0 3.0 0.00 0.18 0.06 81 1013.1
20260507051518 56 148 0.0 2.0 0.00 0.22 0.06 82 1012.8
20260507050012 55 146 1.0 1.0 0.00 0.23 0.06 83 1012.6
20260507044521 54 157 0.0 1.0 0.00 0.24 0.06 83 1012.4
20260507043031 54 143 0.0 2.0 0.00 0.27 0.06 81 1012.2
20260507041503 55 146 1.0 2.0 0.00 0.37 0.06 81 1012.2
20260507040016 0 0.0 0.0 0.00 0.46 0.06 1012.0
20260507034515 56 2.0 3.0 0.00 0.48 0.06 79 1011.8
20260507033024 57 208 1.0 3.0 0.00 0.48 0.06 80 1011.8
20260507031523 57 237 2.0 3.0 0.00 0.48 0.06 79 1011.8
20260507030023 56 214 0.0 2.0 0.00 0.49 0.06 80 1011.8
20260507024504 56 248 2.0 4.0 0.00 0.52 0.06 81 1011.6
20260507023023 57 276 1.0 4.0 0.00 0.62 0.06 82 1011.8
20260507021522 57 236 3.0 6.0 0.00 0.62 0.06 81 1011.8
20260507020018 57 241 2.0 6.0 0.00 0.62 0.06 81 1011.9
20260507014527 57 243 3.0 5.0 0.00 0.62 0.06 80 1011.7
20260507013033 58 239 1.0 3.0 0.00 0.62 0.06 80 1011.7
20260507011514 58 165 2.0 7.0 0.00 0.63 0.06 79 1011.5
20260507010006 58 227 2.0 10.0 0.00 0.66 0.06 79 1011.4
20260507004527 58 172 5.0 11.0 0.00 0.67 0.06 79 1011.5
20260507003019 58 166 4.0 9.0 0.00 0.67 0.06 81 1011.5
20260507001516 58 167 5.0 10.0 0.00 0.67 0.06 81 1011.4
20260507000012 58 225 6.0 9.0 0.00 0.67 0.06 82 1011.6
20260506234512 57 188 4.0 8.0 0.02 0.67 0.06 83 1011.6
20260506233007 57 149 3.0 8.0 0.03 0.67 0.06 84 1011.7
20260506231525 57 204 2.0 5.0 0.04 0.66 0.05 84 1011.9
20260506230024 58 148 4.0 8.0 0.05 0.66 0.05 83 1011.9
20260506224525 58 206 3.0 7.0 0.03 0.65 0.03 83 1012.0
20260506223016 59 30 3.0 7.0 0.02 0.63 0.02 82 1012.0
20260506221511 59 195 4.0 7.0 0.00 0.62 0.00 82 1011.9
20260506220028 60 189 3.0 8.0 0.00 0.61 0.00 80 1011.9
20260506214528 61 203 5.0 9.0 0.00 0.61 0.61 78 1012.0
20260506213026 61 186 5.0 12.0 0.00 0.61 0.61 78 1011.8
20260506211524 61 212 5.0 12.0 0.00 0.61 0.61 79 1011.7
20260506210020 61 217 6.0 12.0 0.00 0.61 0.61 79 1011.7
20260506204518 61 196 6.0 11.0 0.00 0.61 0.61 81 1011.6
20260506203043 61 197 3.0 9.0 0.00 0.61 0.61 81 1011.7
20260506201529 61 212 4.0 10.0 0.00 0.61 0.61 81 1011.5
20260506200041 61 218 4.0 8.0 0.00 0.61 0.61 82 1011.3
20260506194526 61 207 4.0 12.0 0.00 0.61 0.61 81 1011.1
20260506193021 61 229 5.0 9.0 0.00 0.61 0.61 81 1010.9
20260506191504 61 198 5.0 10.0 0.00 0.61 0.61 80 1010.8
20260506190003 62 148 3.0 10.0 0.00 0.61 0.61 79 1010.6
20260506184527 61 210 5.0 11.0 0.02 0.61 0.61 83 1010.4
20260506183012 61 139 3.0 6.0 0.03 0.61 0.61 83 1010.3
20260506181508 61 199 3.0 12.0 0.03 0.60 0.60 81 1010.0
20260506180006 62 233 8.0 15.0 0.03 0.60 0.60 79 1010.1
20260506174505 62 234 8.0 14.0 0.02 0.59 0.59 80 1010.1
20260506173005 63 280 4.0 10.0 0.01 0.58 0.58 80 1009.7
20260506171516 63 281 6.0 13.0 0.00 0.57 0.57 81 1009.5
20260506170014 62 230 6.0 13.0 0.00 0.56 0.56 81 1009.4
20260506164513 62 144 2.0 7.0 0.00 0.56 0.56 85 1009.3
20260506163005 61 80 2.0 7.0 0.00 0.56 0.56 87 1009.3
20260506161504 60 208 4.0 9.0 0.00 0.56 0.56 94 1009.4
20260506160005 59 131 3.0 8.0 0.00 0.56 0.56 94 1009.4
20260506154532 58 170 3.0 6.0 0.00 0.56 0.56 93 1009.5
20260506153016 58 200 3.0 10.0 0.03 0.56 0.56 93 1009.6
20260506151514 60 202 6.0 14.0 0.04 0.55 0.55 92 1009.8
20260506150008 61 267 4.0 7.0 0.04 0.55 0.55 93 1009.9
20260506144508 61 307 6.0 13.0 0.04 0.55 0.55 92 1009.6
20260506143026 63 295 26.0 35.0 0.02 0.53 0.53 85 1009.4
20260506141521 71 153 1.0 5.0 0.00 0.51 0.51 68 1009.0
20260506140029 71 133 5.0 7.0 0.00 0.51 0.51 65 1009.2
20260506134516 71 155 6.0 10.0 0.00 0.51 0.51 65 1009.4
20260506133010 70 139 5.0 13.0 0.00 0.51 0.51 68 1009.6
20260506131514 70 134 6.0 12.0 0.00 0.51 0.51 68 1009.7
20260506130028 69 134 7.0 12.0 0.00 0.51 0.51 69 1009.7
20260506124525 70 172 7.0 12.0 0.00 0.51 0.51 68 1009.8
20260506123020 70 123 5.0 12.0 0.00 0.51 0.51 68 1009.8
20260506121520 70 165 5.0 9.0 0.00 0.51 0.51 69 1009.7
20260506120032 69 203 5.0 9.0 0.00 0.51 0.51 70 1009.8
20260506114514 69 113 8.0 13.0 0.00 0.51 0.51 72 1009.8
20260506113028 68 111 5.0 13.0 0.00 0.51 0.51 71 1010.1
20260506111529 68 197 5.0 11.0 0.00 0.51 0.51 72 1010.3
20260506110022 68 173 4.0 12.0 0.00 0.51 0.51 72 1010.5
20260506104520 68 166 5.0 13.0 0.00 0.51 0.51 75 1010.5
20260506103018 69 119 3.0 15.0 0.00 0.51 0.51 75 1010.6
20260506101514 68 114 7.0 12.0 0.00 0.51 0.51 75 1010.5
20260506100010 68 105 6.0 14.0 0.00 0.51 0.51 73 1010.7
20260506094508 68 154 8.0 13.0 0.00 0.51 0.51 73 1010.7
20260506093006 67 134 4.0 13.0 0.00 0.51 0.51 76 1010.8
20260506091505 66 105 10.0 15.0 0.00 0.51 0.51 76 1010.8
20260506090002 65 121 12.0 17.0 0.00 0.51 0.51 78 1010.7
20260506084528 64 113 8.0 13.0 0.00 0.51 0.51 83 1010.7
20260506083017 63 115 8.0 11.0 0.00 0.53 0.51 86 1010.8
20260506081511 62 90 8.0 12.0 0.00 0.53 0.51 91 1010.8